06h13 EDT


 

Suivi/Infos de l'aéroport


-ou-


 

Suivi des vols en temps réelN904PA ✈ 29-04-2013 ✈ KCZQ - KAVE

Thumbnail
N904PA
PARAMOUNT CITRUS LLC · DELANO CA (registration)
( – info)
Paramount Farms ( – info)
Lost Hills, CA
15h56 UTC
09h15 PDT
Prévu: 16h23 UTC
Prévu: 09h55 PDT
Durée: 19 minutes
lundi, 29 avril 2013
Statut A atterri il y a plus d'un an. (journal de vol & graphique)
Avion Beechcraft Super King Air 200 (bi-turbopropulseur) (BE20/A – photos)
Vitesse Plan de vol: 139 kts (graphique)
Altitude (graphique)
Route n/a
Une partie au moins de ce vol se déroule hors de la zone de services primaire de FlightAware. Pour en savoir plus sur la couverture et la zone de services de FlightAware.
JOURNAL DE L'ACTIVITE
Vous voulez une recherche complète sur l'historique de N904PA depuis 1998? Achetez maintenant. Recevez-le dans l'heure.
Date Avion Provenance Destination Départ Arrivée Durée
21-10-2014 UnknownPrès de Van Nuys, CAVisalia Muni () 16h43 PDT 17h21 PDT (?) 0:37
21-10-2014 Unknown ()Santa Monica Muni () 21h53 UTC 15h22 PDT 0:29
21-10-2014 BE9L/GSanta Monica Muni ()Delano Muni () 12h32 PDT 13h08 PDT (?) 0:35
21-10-2014 BE9L/GMeadows Field ()Santa Monica Muni () 09h48 PDT 10h15 PDT 0:27
21-10-2014 BE9L/GMeadows Field ()Santa Monica Muni () 06h38 PDT 07h11 PDT 0:33
20-10-2014 BE9LSanta Monica Muni ()Meadows Field () 18h20 PDT 18h47 PDT 0:27
20-10-2014 BE9L/GNut Tree ()Meadows Field () 14h50 PDT 15h54 PDT 1:04
17-10-2014 BE9L/GFresno Yosemite Intl ()Van Nuys () 14h15 PDT 15h09 PDT 0:54
17-10-2014 UnknownVan Nuys ()Meadows Field () 06h56 PDT 07h23 PDT 0:27
17-10-2014 BE9L/A ()Santa Monica Muni () 02h02 UTC 19h50 PDT (-1) 0:48
16-10-2014 BE9L/GJohn-Wayne ()Fresno Yosemite Intl () 17h36 PDT 18h31 PDT 0:55
16-10-2014 BE9L/GDelano Muni ()John-Wayne () 16h23 PDT 17h06 PDT 0:43
16-10-2014 BF9L ()Meadows Field () 22h09 UTC 15h38 PDT 0:29
16-10-2014 BE9LR RZS 345 60Santa Monica Muni () 21h16 UTC 14h51 PDT 0:35
16-10-2014 BE9L/GJohn-Wayne ()Delano Muni () 12h27 PDT 13h11 PDT 0:44
16-10-2014 BE9L/GFresno Yosemite Intl ()John-Wayne () 09h26 PDT 10h27 PDT 1:01
16-10-2014 BE9L ()Paramount Farms () 15h00 UTC 08h43 PDT (?) 0:43
16-10-2014 BE9L () () 15h00 UTC Dérouté
15-10-2014 BE9L/GSanta Monica Muni ()Meadows Field () 18h11 PDT 18h38 PDT (?) 0:27
15-10-2014 BE9L/GParamount Farms ()Santa Monica Muni () 17h19 PDT 17h51 PDT 0:32
15-10-2014 BE9L ()Meadows Field () 21h47 UTC 15h14 PDT 0:27
15-10-2014 UnknownPrès de Van Nuys, CAParamount Farms () 07h43 PDT 08h41 PDT (?) 0:58
15-10-2014 BE9LMeadows Field ()Santa Monica Muni () 06h38 PDT 07h11 PDT 0:32
14-10-2014 UnknownSanta Monica Muni ()Meadows Field () 19h03 PDT 19h26 PDT 0:22
14-10-2014 BE9L/GMeadows Field ()Santa Monica Muni () 17h07 PDT 17h57 PDT 0:50
14-10-2014 BE9L/GSanta Monica Muni ()Fresno Yosemite Intl () 15h27 PDT 16h04 PDT 0:36
14-10-2014 BE9L/GParamount Farms ()Santa Monica Muni () 14h23 PDT 14h53 PDT 0:30
14-10-2014 BE9L ()Meadows Field () 14h48 UTC 08h14 PDT 0:26
14-10-2014 BE9L/GMeadows Field ()Santa Monica Muni () 06h45 PDT 07h17 PDT 0:32
13-10-2014 BE9L ()Paramount Farms () 19h51 UTC 13h54 PDT (?) 1:03
13-10-2014 Unknown () () 19h51 UTC Dérouté
10-10-2014 BE9L/GVan Nuys ()Meadows Field () 19h06 PDT 19h25 PDT 0:19
10-10-2014 BE9L/GFresno Yosemite Intl ()Van Nuys () 17h34 PDT 18h46 PDT 1:12
10-10-2014 BE9L/GVan Nuys ()Paso Robles Muni () 16h15 PDT 16h54 PDT 0:39
10-10-2014 BE9L/GPaso Robles Muni ()Van Nuys () 14h47 PDT 15h24 PDT 0:37
10-10-2014 BE9L/GVan Nuys ()Meadows Field () 11h25 PDT 11h49 PDT 0:24
10-10-2014 BE9L/GVisalia Muni ()Van Nuys () 09h24 PDT 09h55 PDT 0:31
10-10-2014 BE9L/ASan Luis County Rgnl ()Visalia Muni () 08h34 PDT 08h57 PDT 0:22
10-10-2014 BE9LMeadows Field ()San Luis County Rgnl () 08h00 PDT 08h14 PDT 0:13
09-10-2014 BE9L/GPaso Robles Muni ()Salinas Muni () 08h47 PDT 09h12 PDT 0:25
09-10-2014 BE9L/GVan Nuys ()Paso Robles Muni () 07h41 PDT 08h21 PDT 0:40
09-10-2014 BE9L/GMeadows Field ()Van Nuys () 06h45 PDT 07h13 PDT 0:28
08-10-2014 UnknownMeadows Field ()Paso Robles Muni () 18h29 PDT 18h39 PDT (?) 0:10
09-10-2014 BE9L ()Meadows Field () 00h11 UTC 17h37 PDT (-1) 0:26
08-10-2014 BE9L ()Santa Monica Muni () 23h21 UTC 16h49 PDT 0:28
08-10-2014 BE9LSacramento Mather ()Delano Muni () 14h57 PDT 16h16 PDT (?) 1:19
08-10-2014 BE9L ()Delano Muni () 14h31 UTC 07h58 PDT 0:27
Les membres inscrits (l'inscription est gratuite et facile!) voient 4 months d'historique. S'inscrire